Year,Month,Day,Hour,Minute,Value (Times are PST for temperature in C)
2012,10,01,00,00,9.80
2012,10,01,00,01,9.80
2012,10,01,00,02,9.80
2012,10,01,00,03,9.70
2012,10,01,00,04,9.70
2012,10,01,00,05,9.70
2012,10,01,00,06,9.70
2012,10,01,00,07,9.70
2012,10,01,00,08,9.70
2012,10,01,00,09,9.70
2012,10,01,00,10,9.70
2012,10,01,00,11,9.70
2012,10,01,00,12,9.70
2012,10,01,00,13,9.70
2012,10,01,00,14,9.70
2012,10,01,00,15,9.70
2012,10,01,00,16,9.70
2012,10,01,00,17,9.70
2012,10,01,00,18,9.70
2012,10,01,00,19,9.70
2012,10,01,00,20,9.70
2012,10,01,00,21,9.70
2012,10,01,00,22,9.70
2012,10,01,00,23,9.70
2012,10,01,00,24,9.70
2012,10,01,00,25,9.70
2012,10,01,00,26,9.70
2012,10,01,00,27,9.70
2012,10,01,00,28,9.80
2012,10,01,00,29,9.80
2012,10,01,00,30,9.80
2012,10,01,00,31,9.90
2012,10,01,00,32,9.90
2012,10,01,00,33,10.00
2012,10,01,00,34,10.10
2012,10,01,00,35,10.10
2012,10,01,00,36,10.10
2012,10,01,00,37,10.10
2012,10,01,00,38,10.10
2012,10,01,00,39,10.10
2012,10,01,00,40,10.10
2012,10,01,00,41,10.10
2012,10,01,00,42,10.10
2012,10,01,00,43,10.00
2012,10,01,00,44,9.90
2012,10,01,00,45,9.90
2012,10,01,00,46,9.90
2012,10,01,00,47,9.90
2012,10,01,00,48,9.90
2012,10,01,00,49,9.90
2012,10,01,00,50,9.90
2012,10,01,00,51,9.90
2012,10,01,00,52,9.90
2012,10,01,00,53,9.90
2012,10,01,00,54,9.90
2012,10,01,00,55,9.90
2012,10,01,00,56,9.90
2012,10,01,00,57,10.00
2012,10,01,00,58,10.10
2012,10,01,00,59,10.10
2012,10,01,01,00,10.10
2012,10,01,01,01,10.10
2012,10,01,01,02,10.10
2012,10,01,01,03,10.10
2012,10,01,01,04,10.10
2012,10,01,01,05,10.10
2012,10,01,01,06,10.10
2012,10,01,01,07,10.10
2012,10,01,01,08,10.20
2012,10,01,01,09,10.20
2012,10,01,01,10,10.20
2012,10,01,01,11,10.20
2012,10,01,01,12,10.20
2012,10,01,01,13,10.20
2012,10,01,01,14,10.20
2012,10,01,01,15,10.20
2012,10,01,01,16,10.20
2012,10,01,01,17,10.20
2012,10,01,01,18,10.10
2012,10,01,01,19,10.10
2012,10,01,01,20,10.10
2012,10,01,01,21,10.10
2012,10,01,01,22,10.00
2012,10,01,01,23,9.90
2012,10,01,01,24,9.90
2012,10,01,01,25,9.90
2012,10,01,01,26,9.90
2012,10,01,01,27,9.90
2012,10,01,01,28,9.90
2012,10,01,01,29,9.90
2012,10,01,01,30,9.90
2012,10,01,01,31,9.90
2012,10,01,01,32,9.90
2012,10,01,01,33,9.90
2012,10,01,01,34,9.90
2012,10,01,01,35,9.90
2012,10,01,01,36,9.90
2012,10,01,01,37,10.00
2012,10,01,01,38,10.10
2012,10,01,01,39,10.10
2012,10,01,01,40,10.10
2012,10,01,01,41,10.10
2012,10,01,01,42,10.10
2012,10,01,01,43,10.10
2012,10,01,01,44,10.10
2012,10,01,01,45,10.10
2012,10,01,01,46,10.10
2012,10,01,01,47,10.10
2012,10,01,01,48,10.10
2012,10,01,01,49,10.10
2012,10,01,01,50,10.10
2012,10,01,01,51,10.10
2012,10,01,01,52,10.10
2012,10,01,01,53,10.10
2012,10,01,01,54,10.10
2012,10,01,01,55,10.10
2012,10,01,01,56,10.10
2012,10,01,01,57,10.10
2012,10,01,01,58,10.10
2012,10,01,01,59,10.10
2012,10,01,02,00,10.00
2012,10,01,02,01,9.90
2012,10,01,02,02,9.90
2012,10,01,02,03,9.90
2012,10,01,02,04,9.90
2012,10,01,02,05,9.90
2012,10,01,02,06,9.90
2012,10,01,02,07,9.90
2012,10,01,02,08,9.90
2012,10,01,02,09,9.90
2012,10,01,02,10,9.90
2012,10,01,02,11,9.90
2012,10,01,02,12,9.90
2012,10,01,02,13,9.90
2012,10,01,02,14,9.90
2012,10,01,02,15,9.90
2012,10,01,02,16,9.80
2012,10,01,02,17,9.80
2012,10,01,02,18,9.80
2012,10,01,02,19,9.80
2012,10,01,02,20,9.80
2012,10,01,02,21,9.80
2012,10,01,02,22,9.80
2012,10,01,02,23,9.80
2012,10,01,02,24,9.80
2012,10,01,02,25,9.80
2012,10,01,02,26,9.80
2012,10,01,02,27,9.80
2012,10,01,02,28,9.80
2012,10,01,02,29,9.90
2012,10,01,02,30,9.80
2012,10,01,02,31,9.80
2012,10,01,02,32,9.80
2012,10,01,02,33,9.80
2012,10,01,02,34,9.80
2012,10,01,02,35,9.80
2012,10,01,02,36,9.80
2012,10,01,02,37,9.80
2012,10,01,02,38,9.80
2012,10,01,02,39,9.80
2012,10,01,02,40,9.80
2012,10,01,02,41,9.80
2012,10,01,02,42,9.80
2012,10,01,02,43,9.80
2012,10,01,02,44,9.80
2012,10,01,02,45,9.80
2012,10,01,02,46,9.80
2012,10,01,02,47,9.80
2012,10,01,02,48,9.80
2012,10,01,02,49,9.80
2012,10,01,02,50,9.80
2012,10,01,02,51,9.80
2012,10,01,02,52,9.80
2012,10,01,02,53,9.80
2012,10,01,02,54,9.80
2012,10,01,02,55,9.80
2012,10,01,02,56,9.80
2012,10,01,02,57,9.80
2012,10,01,02,58,9.90
2012,10,01,02,59,9.90
2012,10,01,03,00,9.90
2012,10,01,03,01,9.90
2012,10,01,03,02,9.90
2012,10,01,03,03,9.90
2012,10,01,03,04,9.90
2012,10,01,03,05,9.90
2012,10,01,03,06,9.90
2012,10,01,03,07,9.90
2012,10,01,03,08,9.90
2012,10,01,03,09,9.90
2012,10,01,03,10,9.90
2012,10,01,03,11,9.90
2012,10,01,03,12,9.90
2012,10,01,03,13,9.90
2012,10,01,03,14,9.90
2012,10,01,03,15,9.80
2012,10,01,03,16,9.80
2012,10,01,03,17,9.80
2012,10,01,03,18,9.70
2012,10,01,03,19,9.70
2012,10,01,03,20,9.60
2012,10,01,03,21,9.50
2012,10,01,03,22,9.50
2012,10,01,03,23,9.40
2012,10,01,03,24,9.40
2012,10,01,03,25,9.40
2012,10,01,03,26,9.30
2012,10,01,03,27,9.30
2012,10,01,03,28,9.30
2012,10,01,03,29,9.30
2012,10,01,03,30,9.20
2012,10,01,03,31,9.20
2012,10,01,03,32,9.20
2012,10,01,03,33,9.20
2012,10,01,03,34,9.20
2012,10,01,03,35,9.20
2012,10,01,03,36,9.20
2012,10,01,03,37,9.20
2012,10,01,03,38,9.20
2012,10,01,03,39,9.10
2012,10,01,03,40,9.10
2012,10,01,03,41,9.10
2012,10,01,03,42,9.10
2012,10,01,03,43,9.10
2012,10,01,03,44,9.00
2012,10,01,03,45,9.00
2012,10,01,03,46,9.00
2012,10,01,03,47,9.00
2012,10,01,03,48,8.90
2012,10,01,03,49,8.90
2012,10,01,03,50,8.90
2012,10,01,03,51,8.90
2012,10,01,03,52,8.80
2012,10,01,03,53,8.80
2012,10,01,03,54,8.80
2012,10,01,03,55,8.80
2012,10,01,03,56,8.80
2012,10,01,03,57,8.70
2012,10,01,03,58,8.70
2012,10,01,03,59,8.70
2012,10,01,04,00,8.70
2012,10,01,04,01,8.70
2012,10,01,04,02,8.70
2012,10,01,04,03,8.70
2012,10,01,04,04,8.70
2012,10,01,04,05,8.70
2012,10,01,04,06,8.70
2012,10,01,04,07,8.70
2012,10,01,04,08,8.70
2012,10,01,04,09,8.70
2012,10,01,04,10,8.70
2012,10,01,04,11,8.70
2012,10,01,04,12,8.70
2012,10,01,04,13,8.70
2012,10,01,04,14,8.70
2012,10,01,04,15,8.70
2012,10,01,04,16,8.70
2012,10,01,04,17,8.70
2012,10,01,04,18,8.70
2012,10,01,04,19,8.70
2012,10,01,04,20,8.70
2012,10,01,04,21,8.70
2012,10,01,04,22,8.70
2012,10,01,04,23,8.80
2012,10,01,04,24,8.80
2012,10,01,04,25,8.80
2012,10,01,04,26,8.80
2012,10,01,04,27,8.80
2012,10,01,04,28,8.80
2012,10,01,04,29,8.80
2012,10,01,04,30,8.80
2012,10,01,04,31,8.80
2012,10,01,04,32,8.90
2012,10,01,04,33,8.90
2012,10,01,04,34,8.90
2012,10,01,04,35,8.90
2012,10,01,04,36,8.90
2012,10,01,04,37,8.90
2012,10,01,04,38,8.90
2012,10,01,04,39,9.00
2012,10,01,04,40,9.00
2012,10,01,04,41,9.00
2012,10,01,04,42,9.00
2012,10,01,04,43,9.00
2012,10,01,04,44,9.00
2012,10,01,04,45,9.00
2012,10,01,04,46,9.10
2012,10,01,04,47,9.10
2012,10,01,04,48,9.10
2012,10,01,04,49,9.10
2012,10,01,04,50,9.20
2012,10,01,04,51,9.20
2012,10,01,04,52,9.20
2012,10,01,04,53,9.20
2012,10,01,04,54,9.20
2012,10,01,04,55,9.20
2012,10,01,04,56,9.20
2012,10,01,04,57,9.20
2012,10,01,04,58,9.20
2012,10,01,04,59,9.20
2012,10,01,05,00,9.20
2012,10,01,05,01,9.20
2012,10,01,05,02,9.20
2012,10,01,05,03,9.20
2012,10,01,05,04,9.20
2012,10,01,05,05,9.20
2012,10,01,05,06,9.20
2012,10,01,05,07,9.20
2012,10,01,05,08,9.20
2012,10,01,05,09,9.20
2012,10,01,05,10,9.20
2012,10,01,05,11,9.20
2012,10,01,05,12,9.20
2012,10,01,05,13,9.10
2012,10,01,05,14,9.10
2012,10,01,05,15,9.10
2012,10,01,05,16,9.00
2012,10,01,05,17,9.00
2012,10,01,05,18,9.00
2012,10,01,05,19,9.00
2012,10,01,05,20,8.90
2012,10,01,05,21,8.90
2012,10,01,05,22,8.90
2012,10,01,05,23,8.90
2012,10,01,05,24,8.90
2012,10,01,05,25,8.90
2012,10,01,05,26,8.90
2012,10,01,05,27,8.90
2012,10,01,05,28,8.90
2012,10,01,05,29,8.80
2012,10,01,05,30,8.80
2012,10,01,05,31,8.80
2012,10,01,05,32,8.80
2012,10,01,05,33,8.80
2012,10,01,05,34,8.80
2012,10,01,05,35,8.80
2012,10,01,05,36,8.80
2012,10,01,05,37,8.80
2012,10,01,05,38,8.80
2012,10,01,05,39,8.80
2012,10,01,05,40,8.80
2012,10,01,05,41,8.80
2012,10,01,05,42,8.80
2012,10,01,05,43,8.80
2012,10,01,05,44,8.80
2012,10,01,05,45,8.80
2012,10,01,05,46,8.80
2012,10,01,05,47,8.80
2012,10,01,05,48,8.80
2012,10,01,05,49,8.80
2012,10,01,05,50,8.80
2012,10,01,05,51,8.80
2012,10,01,05,52,8.80
2012,10,01,05,53,8.80
2012,10,01,05,54,8.80
2012,10,01,05,55,8.80
2012,10,01,05,56,8.80
2012,10,01,05,57,8.80
2012,10,01,05,58,8.80
2012,10,01,05,59,8.70
2012,10,01,06,00,8.70
2012,10,01,06,01,8.70
2012,10,01,06,02,8.70
2012,10,01,06,03,8.70
2012,10,01,06,04,8.70
2012,10,01,06,05,8.70
2012,10,01,06,06,8.70
2012,10,01,06,07,8.70
2012,10,01,06,08,8.60
2012,10,01,06,09,8.60
2012,10,01,06,10,8.60
2012,10,01,06,11,8.60
2012,10,01,06,12,8.60
2012,10,01,06,13,8.60
2012,10,01,06,14,8.60
2012,10,01,06,15,8.60
2012,10,01,06,16,8.60
2012,10,01,06,17,8.60
2012,10,01,06,18,8.60
2012,10,01,06,19,8.60
2012,10,01,06,20,8.60
2012,10,01,06,21,8.60
2012,10,01,06,22,8.60
2012,10,01,06,23,8.70
2012,10,01,06,24,8.70
2012,10,01,06,25,8.70
2012,10,01,06,26,8.60
2012,10,01,06,27,8.60
2012,10,01,06,28,8.60
2012,10,01,06,29,8.60
2012,10,01,06,30,8.60
2012,10,01,06,31,8.60
2012,10,01,06,32,8.70
2012,10,01,06,33,8.70
2012,10,01,06,34,8.70
2012,10,01,06,35,8.70
2012,10,01,06,36,8.70
2012,10,01,06,37,8.70
2012,10,01,06,38,8.70
2012,10,01,06,39,8.70
2012,10,01,06,40,8.70
2012,10,01,06,41,8.70
2012,10,01,06,42,8.70
2012,10,01,06,43,8.70
2012,10,01,06,44,8.70
2012,10,01,06,45,8.70
2012,10,01,06,46,8.70
2012,10,01,06,47,8.70
2012,10,01,06,48,8.60
2012,10,01,06,49,8.60
2012,10,01,06,50,8.60
2012,10,01,06,51,8.50
2012,10,01,06,52,8.50
2012,10,01,06,53,8.50
2012,10,01,06,54,8.50
2012,10,01,06,55,8.50
2012,10,01,06,56,8.50
2012,10,01,06,57,8.50
2012,10,01,06,58,8.50
2012,10,01,06,59,8.50
2012,10,01,07,00,8.50
2012,10,01,07,01,8.50
2012,10,01,07,02,8.50
2012,10,01,07,03,8.50
2012,10,01,07,04,8.50
2012,10,01,07,05,8.50
2012,10,01,07,06,8.50
2012,10,01,07,07,8.50
2012,10,01,07,08,8.50
2012,10,01,07,09,8.50
2012,10,01,07,10,8.50
2012,10,01,07,11,8.50
2012,10,01,07,12,8.50
2012,10,01,07,13,8.50
2012,10,01,07,14,8.50
2012,10,01,07,15,8.50
2012,10,01,07,16,8.40
2012,10,01,07,17,8.40
2012,10,01,07,18,8.40
2012,10,01,07,19,8.40
2012,10,01,07,20,8.40
2012,10,01,07,21,8.40
2012,10,01,07,22,8.30
2012,10,01,07,23,8.30
2012,10,01,07,24,8.30
2012,10,01,07,25,8.30
2012,10,01,07,26,8.30
2012,10,01,07,27,8.30
2012,10,01,07,28,8.40
2012,10,01,07,29,8.40
2012,10,01,07,30,8.40
2012,10,01,07,31,8.40
2012,10,01,07,32,8.50
2012,10,01,07,33,8.50
2012,10,01,07,34,8.50
2012,10,01,07,35,8.50
2012,10,01,07,36,8.50
2012,10,01,07,37,8.50
2012,10,01,07,38,8.60
2012,10,01,07,39,8.60
2012,10,01,07,40,8.70
2012,10,01,07,41,8.70
2012,10,01,07,42,8.70
2012,10,01,07,43,8.80
2012,10,01,07,44,8.90
2012,10,01,07,45,9.00
2012,10,01,07,46,9.00
2012,10,01,07,47,9.10
2012,10,01,07,48,9.20
2012,10,01,07,49,9.30
2012,10,01,07,50,9.40
2012,10,01,07,51,9.40
2012,10,01,07,52,9.50
2012,10,01,07,53,9.60
2012,10,01,07,54,9.60
2012,10,01,07,55,9.70
2012,10,01,07,56,9.70
2012,10,01,07,57,9.70
2012,10,01,07,58,9.70
2012,10,01,07,59,9.80
2012,10,01,08,00,9.80
2012,10,01,08,01,9.90
2012,10,01,08,02,9.90
2012,10,01,08,03,9.90
2012,10,01,08,04,10.00
2012,10,01,08,05,10.10
2012,10,01,08,06,10.10
2012,10,01,08,07,10.10
2012,10,01,08,08,10.10
2012,10,01,08,09,10.10
2012,10,01,08,10,10.10
2012,10,01,08,11,10.10
2012,10,01,08,12,10.20
2012,10,01,08,13,10.20
2012,10,01,08,14,10.20
2012,10,01,08,15,10.20
2012,10,01,08,16,10.30
2012,10,01,08,17,10.30
2012,10,01,08,18,10.30
2012,10,01,08,19,10.40
2012,10,01,08,20,10.40
2012,10,01,08,21,10.40
2012,10,01,08,22,10.40
2012,10,01,08,23,10.50
2012,10,01,08,24,10.60
2012,10,01,08,25,10.60
2012,10,01,08,26,10.60
2012,10,01,08,27,10.70
2012,10,01,08,28,10.80
2012,10,01,08,29,10.80
2012,10,01,08,30,10.90
2012,10,01,08,31,10.90
2012,10,01,08,32,10.90
2012,10,01,08,33,10.90
2012,10,01,08,34,11.00
2012,10,01,08,35,11.10
2012,10,01,08,36,11.10
2012,10,01,08,37,11.10
2012,10,01,08,38,11.20
2012,10,01,08,39,11.20
2012,10,01,08,40,11.30
2012,10,01,08,41,11.30
2012,10,01,08,42,11.40
2012,10,01,08,43,11.40
2012,10,01,08,44,11.40
2012,10,01,08,45,11.40
2012,10,01,08,46,11.50
2012,10,01,08,47,11.60
2012,10,01,08,48,11.60
2012,10,01,08,49,11.60
2012,10,01,08,50,11.60
2012,10,01,08,51,11.60
2012,10,01,08,52,11.60
2012,10,01,08,53,11.60
2012,10,01,08,54,11.70
2012,10,01,08,55,11.70
2012,10,01,08,56,11.80
2012,10,01,08,57,11.80
2012,10,01,08,58,11.80
2012,10,01,08,59,11.80
2012,10,01,09,00,11.90
2012,10,01,09,01,12.00
2012,10,01,09,02,12.00
2012,10,01,09,03,12.10
2012,10,01,09,04,12.10
2012,10,01,09,05,12.20
2012,10,01,09,06,12.20
2012,10,01,09,07,12.20
2012,10,01,09,08,12.20
2012,10,01,09,09,12.20
2012,10,01,09,10,12.10
2012,10,01,09,11,12.00
2012,10,01,09,12,12.00
2012,10,01,09,13,11.90
2012,10,01,09,14,11.90
2012,10,01,09,15,11.90
2012,10,01,09,16,11.90
2012,10,01,09,17,11.90
2012,10,01,09,18,11.90
2012,10,01,09,19,11.80
2012,10,01,09,20,11.80
2012,10,01,09,21,11.80
2012,10,01,09,22,11.80
2012,10,01,09,23,11.90
2012,10,01,09,24,11.90
2012,10,01,09,25,12.00
2012,10,01,09,26,12.00
2012,10,01,09,27,12.10
2012,10,01,09,28,12.10
2012,10,01,09,29,12.20
2012,10,01,09,30,12.30
2012,10,01,09,31,12.40
2012,10,01,09,32,12.50
2012,10,01,09,33,12.60
2012,10,01,09,34,12.70
2012,10,01,09,35,12.90
2012,10,01,09,36,13.00
2012,10,01,09,37,13.10
2012,10,01,09,38,13.20
2012,10,01,09,39,13.20
2012,10,01,09,40,13.30
2012,10,01,09,41,13.40
2012,10,01,09,42,13.50
2012,10,01,09,43,13.60
2012,10,01,09,44,13.60
2012,10,01,09,45,13.60
2012,10,01,09,46,13.60
2012,10,01,09,47,13.60
2012,10,01,09,48,13.50
2012,10,01,09,49,13.40
2012,10,01,09,50,13.30
2012,10,01,09,51,13.20
2012,10,01,09,52,13.10
2012,10,01,09,53,12.90
2012,10,01,09,54,12.80
2012,10,01,09,55,12.70
2012,10,01,09,56,12.60
2012,10,01,09,57,12.60
2012,10,01,09,58,12.50
2012,10,01,09,59,12.60
2012,10,01,10,00,12.50
2012,10,01,10,01,12.50
2012,10,01,10,02,12.50
2012,10,01,10,03,12.50
2012,10,01,10,04,12.50
2012,10,01,10,05,12.50
2012,10,01,10,06,12.50
2012,10,01,10,07,12.50
2012,10,01,10,08,12.50
2012,10,01,10,09,12.50
2012,10,01,10,10,12.60
2012,10,01,10,11,12.60
2012,10,01,10,12,12.60
2012,10,01,10,13,12.70
2012,10,01,10,14,12.70
2012,10,01,10,15,12.80
2012,10,01,10,16,12.80
2012,10,01,10,17,12.80
2012,10,01,10,18,12.90
2012,10,01,10,19,13.00
2012,10,01,10,20,13.00
2012,10,01,10,21,13.10
2012,10,01,10,22,13.20
2012,10,01,10,23,13.30
2012,10,01,10,24,13.30
2012,10,01,10,25,13.40
2012,10,01,10,26,13.50
2012,10,01,10,27,13.50
2012,10,01,10,28,13.50
2012,10,01,10,29,13.50
2012,10,01,10,30,13.50
2012,10,01,10,31,13.60
2012,10,01,10,32,13.60
2012,10,01,10,33,13.60
2012,10,01,10,34,13.50
2012,10,01,10,35,13.40
2012,10,01,10,36,13.40
2012,10,01,10,37,13.40
2012,10,01,10,38,13.40
2012,10,01,10,39,13.50
2012,10,01,10,40,13.50
2012,10,01,10,41,13.50
2012,10,01,10,42,13.50
2012,10,01,10,43,13.50
2012,10,01,10,44,13.50
2012,10,01,10,45,13.50
2012,10,01,10,46,13.60
2012,10,01,10,47,13.60
2012,10,01,10,48,13.60
2012,10,01,10,49,13.70
2012,10,01,10,50,13.70
2012,10,01,10,51,13.80
2012,10,01,10,52,13.90
2012,10,01,10,53,14.00
2012,10,01,10,54,14.00
2012,10,01,10,55,14.10
2012,10,01,10,56,14.10
2012,10,01,10,57,14.10
2012,10,01,10,58,14.10
2012,10,01,10,59,14.10
2012,10,01,11,00,14.00
2012,10,01,11,01,14.00
2012,10,01,11,02,14.10
2012,10,01,11,03,14.10
2012,10,01,11,04,14.20
2012,10,01,11,05,14.20
2012,10,01,11,06,14.20
2012,10,01,11,07,14.20
2012,10,01,11,08,14.20
2012,10,01,11,09,14.20
2012,10,01,11,10,14.40
2012,10,01,11,11,14.50
2012,10,01,11,12,14.70
2012,10,01,11,13,14.80
2012,10,01,11,14,14.80
2012,10,01,11,15,14.80
2012,10,01,11,16,14.90
2012,10,01,11,17,15.00
2012,10,01,11,18,15.10
2012,10,01,11,19,15.20
2012,10,01,11,20,15.30
2012,10,01,11,21,15.30
2012,10,01,11,22,15.20
2012,10,01,11,23,15.20
2012,10,01,11,24,15.20
2012,10,01,11,25,15.30
2012,10,01,11,26,15.40
2012,10,01,11,27,15.40
2012,10,01,11,28,15.50
2012,10,01,11,29,15.50
2012,10,01,11,30,15.60
2012,10,01,11,31,15.60
2012,10,01,11,32,15.70
2012,10,01,11,33,15.70
2012,10,01,11,34,15.80
2012,10,01,11,35,15.90
2012,10,01,11,36,16.10
2012,10,01,11,37,16.20
2012,10,01,11,38,16.40
2012,10,01,11,39,16.60
2012,10,01,11,40,16.70
2012,10,01,11,41,16.70
2012,10,01,11,42,16.80
2012,10,01,11,43,16.90
2012,10,01,11,44,17.00
2012,10,01,11,45,17.20
2012,10,01,11,46,17.40
2012,10,01,11,47,17.50
2012,10,01,11,48,17.60
2012,10,01,11,49,17.70
2012,10,01,11,50,17.80
2012,10,01,11,51,18.00
2012,10,01,11,52,18.10
2012,10,01,11,53,18.20
2012,10,01,11,54,18.40
2012,10,01,11,55,18.50
2012,10,01,11,56,18.60
2012,10,01,11,57,18.60
2012,10,01,11,58,18.60
2012,10,01,11,59,18.70
2012,10,01,12,00,18.70
2012,10,01,12,01,18.80
2012,10,01,12,02,18.80
2012,10,01,12,03,18.80
2012,10,01,12,04,18.90
2012,10,01,12,05,18.90
2012,10,01,12,06,19.00
2012,10,01,12,07,19.10
2012,10,01,12,08,19.10
2012,10,01,12,09,19.10
2012,10,01,12,10,19.20
2012,10,01,12,11,19.10
2012,10,01,12,12,19.10
2012,10,01,12,13,19.10
2012,10,01,12,14,19.10
2012,10,01,12,15,19.10
2012,10,01,12,16,19.10
2012,10,01,12,17,19.10
2012,10,01,12,18,19.10
2012,10,01,12,19,19.10
2012,10,01,12,20,19.10
2012,10,01,12,21,19.10
2012,10,01,12,22,19.10
2012,10,01,12,23,19.10
2012,10,01,12,24,19.10
2012,10,01,12,25,19.10
2012,10,01,12,26,19.10
2012,10,01,12,27,19.10
2012,10,01,12,28,19.10
2012,10,01,12,29,19.10
2012,10,01,12,30,19.10
2012,10,01,12,31,19.10
2012,10,01,12,32,19.10
2012,10,01,12,33,19.10
2012,10,01,12,34,19.10
2012,10,01,12,35,19.10
2012,10,01,12,36,19.00
2012,10,01,12,37,18.90
2012,10,01,12,38,18.90
2012,10,01,12,39,19.00
2012,10,01,12,40,19.10
2012,10,01,12,41,19.10
2012,10,01,12,42,19.10
2012,10,01,12,43,19.20
2012,10,01,12,44,19.30
2012,10,01,12,45,19.40
2012,10,01,12,46,19.40
2012,10,01,12,47,19.50
2012,10,01,12,48,19.50
2012,10,01,12,49,19.60
2012,10,01,12,50,19.60
2012,10,01,12,51,19.60
2012,10,01,12,52,19.70
2012,10,01,12,53,19.70
2012,10,01,12,54,19.70
2012,10,01,12,55,19.70
2012,10,01,12,56,19.70
2012,10,01,12,57,19.80
2012,10,01,12,58,19.80
2012,10,01,12,59,19.90
2012,10,01,13,00,19.80
2012,10,01,13,01,19.90
2012,10,01,13,02,19.90
2012,10,01,13,03,19.90
2012,10,01,13,04,19.90
2012,10,01,13,05,19.90
2012,10,01,13,06,20.00
2012,10,01,13,07,20.10
2012,10,01,13,08,20.20
2012,10,01,13,09,20.20
2012,10,01,13,10,20.20
2012,10,01,13,11,20.20
2012,10,01,13,12,20.20
2012,10,01,13,13,20.30
2012,10,01,13,14,20.30
2012,10,01,13,15,20.30
2012,10,01,13,16,20.30
2012,10,01,13,17,20.30
2012,10,01,13,18,20.40
2012,10,01,13,19,20.50
2012,10,01,13,20,20.50
2012,10,01,13,21,20.50
2012,10,01,13,22,20.60
2012,10,01,13,23,20.60
2012,10,01,13,24,20.60
2012,10,01,13,25,20.60
2012,10,01,13,26,20.60
2012,10,01,13,27,20.70
2012,10,01,13,28,20.80
2012,10,01,13,29,20.80
2012,10,01,13,30,20.80
2012,10,01,13,31,20.80
2012,10,01,13,32,20.90
2012,10,01,13,33,20.90
2012,10,01,13,34,20.90
2012,10,01,13,35,21.00
2012,10,01,13,36,20.90
2012,10,01,13,37,20.90
2012,10,01,13,38,21.00
2012,10,01,13,39,21.00
2012,10,01,13,40,21.00
2012,10,01,13,41,21.00
2012,10,01,13,42,21.00
2012,10,01,13,43,21.00
2012,10,01,13,44,21.10
2012,10,01,13,45,21.10
2012,10,01,13,46,21.20
2012,10,01,13,47,21.20
2012,10,01,13,48,21.30
2012,10,01,13,49,21.30
2012,10,01,13,50,21.30
2012,10,01,13,51,21.40
2012,10,01,13,52,21.40
2012,10,01,13,53,21.40
2012,10,01,13,54,21.40
2012,10,01,13,55,21.40
2012,10,01,13,56,21.40
2012,10,01,13,57,21.40
2012,10,01,13,58,21.50
2012,10,01,13,59,21.60
2012,10,01,14,00,21.50
2012,10,01,14,01,21.30
2012,10,01,14,02,21.30
2012,10,01,14,03,21.30
2012,10,01,14,04,21.30
2012,10,01,14,05,21.20
2012,10,01,14,06,21.10
2012,10,01,14,07,21.00
2012,10,01,14,08,21.00
2012,10,01,14,09,21.00
2012,10,01,14,10,21.10
2012,10,01,14,11,21.10
2012,10,01,14,12,21.20
2012,10,01,14,13,21.30
2012,10,01,14,14,21.30
2012,10,01,14,15,21.30
2012,10,01,14,16,21.30
2012,10,01,14,17,21.30
2012,10,01,14,18,21.30
2012,10,01,14,19,21.30
2012,10,01,14,20,21.20
2012,10,01,14,21,21.20
2012,10,01,14,22,21.10
2012,10,01,14,23,21.00
2012,10,01,14,24,20.90
2012,10,01,14,25,20.80
2012,10,01,14,26,20.70
2012,10,01,14,27,20.60
2012,10,01,14,28,20.50
2012,10,01,14,29,20.50
2012,10,01,14,30,20.40
2012,10,01,14,31,20.40
2012,10,01,14,32,20.30
2012,10,01,14,33,20.30
2012,10,01,14,34,20.20
2012,10,01,14,35,20.20
2012,10,01,14,36,20.20
2012,10,01,14,37,20.20
2012,10,01,14,38,20.30
2012,10,01,14,39,20.30
2012,10,01,14,40,20.30
2012,10,01,14,41,20.30
2012,10,01,14,42,20.30
2012,10,01,14,43,20.30
2012,10,01,14,44,20.20
2012,10,01,14,45,20.20
2012,10,01,14,46,20.20
2012,10,01,14,47,20.20
2012,10,01,14,48,20.20
2012,10,01,14,49,20.20
2012,10,01,14,50,20.20
2012,10,01,14,51,20.20
2012,10,01,14,52,20.10
2012,10,01,14,53,20.10
2012,10,01,14,54,20.00
2012,10,01,14,55,19.90
2012,10,01,14,56,19.90
2012,10,01,14,57,19.90
2012,10,01,14,58,19.90
2012,10,01,14,59,19.90
2012,10,01,15,00,19.90
2012,10,01,15,01,19.90
2012,10,01,15,02,19.90
2012,10,01,15,03,19.90
2012,10,01,15,04,19.80
2012,10,01,15,05,19.70
2012,10,01,15,06,19.70
2012,10,01,15,07,19.60
2012,10,01,15,08,19.60
2012,10,01,15,09,19.60
2012,10,01,15,10,19.50
2012,10,01,15,11,19.50
2012,10,01,15,12,19.50
2012,10,01,15,13,19.50
2012,10,01,15,14,19.40
2012,10,01,15,15,19.40
2012,10,01,15,16,19.40
2012,10,01,15,17,19.30
2012,10,01,15,18,19.30
2012,10,01,15,19,19.20
2012,10,01,15,20,19.20
2012,10,01,15,21,19.20
2012,10,01,15,22,19.20
2012,10,01,15,23,19.20
2012,10,01,15,24,19.10
2012,10,01,15,25,19.10
2012,10,01,15,26,19.10
2012,10,01,15,27,18.90
2012,10,01,15,28,18.90
2012,10,01,15,29,18.80
2012,10,01,15,30,18.80
2012,10,01,15,31,18.80
2012,10,01,15,32,18.70
2012,10,01,15,33,18.70
2012,10,01,15,34,18.70
2012,10,01,15,35,18.70
2012,10,01,15,36,18.70
2012,10,01,15,37,18.60
2012,10,01,15,38,18.60
2012,10,01,15,39,18.60
2012,10,01,15,40,18.60
2012,10,01,15,41,18.70
2012,10,01,15,42,18.70
2012,10,01,15,43,18.70
2012,10,01,15,44,18.70
2012,10,01,15,45,18.80
2012,10,01,15,46,18.80
2012,10,01,15,47,18.80
2012,10,01,15,48,18.90
2012,10,01,15,49,18.90
2012,10,01,15,50,18.90
2012,10,01,15,51,19.00
2012,10,01,15,52,19.10
2012,10,01,15,53,19.20
2012,10,01,15,54,19.30
2012,10,01,15,55,19.30
2012,10,01,15,56,19.40
2012,10,01,15,57,19.50
2012,10,01,15,58,19.60
2012,10,01,15,59,19.60
2012,10,01,16,00,19.70
2012,10,01,16,01,19.80
2012,10,01,16,02,19.80
2012,10,01,16,03,19.90
2012,10,01,16,04,19.90
2012,10,01,16,05,19.80
2012,10,01,16,06,19.80
2012,10,01,16,07,19.80
2012,10,01,16,08,19.80
2012,10,01,16,09,19.80
2012,10,01,16,10,19.70
2012,10,01,16,11,19.60
2012,10,01,16,12,19.40
2012,10,01,16,13,19.30
2012,10,01,16,14,19.20
2012,10,01,16,15,19.10
2012,10,01,16,16,19.10
2012,10,01,16,17,19.10
2012,10,01,16,18,19.10
2012,10,01,16,19,19.10
2012,10,01,16,20,19.10
2012,10,01,16,21,19.10
2012,10,01,16,22,19.10
2012,10,01,16,23,19.10
2012,10,01,16,24,19.20
2012,10,01,16,25,19.30
2012,10,01,16,26,19.30
2012,10,01,16,27,19.40
2012,10,01,16,28,19.40
2012,10,01,16,29,19.40
2012,10,01,16,30,19.50
2012,10,01,16,31,19.50
2012,10,01,16,32,19.50
2012,10,01,16,33,19.50
2012,10,01,16,34,19.50
2012,10,01,16,35,19.50
2012,10,01,16,36,19.50
2012,10,01,16,37,19.40
2012,10,01,16,38,19.40
2012,10,01,16,39,19.30
2012,10,01,16,40,19.20
2012,10,01,16,41,19.10
2012,10,01,16,42,19.10
2012,10,01,16,43,19.00
2012,10,01,16,44,18.90
2012,10,01,16,45,18.90
2012,10,01,16,46,18.80
2012,10,01,16,47,18.70
2012,10,01,16,48,18.60
2012,10,01,16,49,18.60
2012,10,01,16,50,18.50
2012,10,01,16,51,18.50
2012,10,01,16,52,18.40
2012,10,01,16,53,18.30
2012,10,01,16,54,18.20
2012,10,01,16,55,18.20
2012,10,01,16,56,18.10
2012,10,01,16,57,18.00
2012,10,01,16,58,17.90
2012,10,01,16,59,17.90
2012,10,01,17,00,17.80
2012,10,01,17,01,17.70
2012,10,01,17,02,17.70
2012,10,01,17,03,17.60
2012,10,01,17,04,17.50
2012,10,01,17,05,17.50
2012,10,01,17,06,17.40
2012,10,01,17,07,17.40
2012,10,01,17,08,17.40
2012,10,01,17,09,17.40
2012,10,01,17,10,17.40
2012,10,01,17,11,17.50
2012,10,01,17,12,17.50
2012,10,01,17,13,17.50
2012,10,01,17,14,17.50
2012,10,01,17,15,17.50
2012,10,01,17,16,17.50
2012,10,01,17,17,17.50
2012,10,01,17,18,17.50
2012,10,01,17,19,17.50
2012,10,01,17,20,17.60
2012,10,01,17,21,17.60
2012,10,01,17,22,17.60
2012,10,01,17,23,17.60
2012,10,01,17,24,17.50
2012,10,01,17,25,17.50
2012,10,01,17,26,17.50
2012,10,01,17,27,17.50
2012,10,01,17,28,17.50
2012,10,01,17,29,17.50
2012,10,01,17,30,17.60
2012,10,01,17,31,17.60
2012,10,01,17,32,17.60
2012,10,01,17,33,17.60
2012,10,01,17,34,17.60
2012,10,01,17,35,17.60
2012,10,01,17,36,17.50
2012,10,01,17,37,17.50